FALCON 9 DEB (46386 NORAD) Tracking and Keplerian Element Data

This shows tracking and keplerian element data for the satellite.

Feedback or suggestion? Click here.




ElementValue
Catalog46386
NameFALCON 9 DEB
Epoch Orbit384
Epoch Day267.45112138
Epoch Year2020
RAAN327.6769
Inclination52.995
Eccentricity0.0056928
Argument of Perigee116.7905
Mean Anonmoly243.8969
Mean Motion16.1491223
Decay Rate0.00819505
L11 46386U 20062BP 20267.45112138 .00819505 11707-4 44734-3 0 9992
L22 46386 52.9950 327.6769 0056928 116.7905 243.8969 16.14912230 3843

Live tracking and technical data element details for FALCON 9 DEB (NORAD 46386). FALCON 9 DEB can be tracked NOW for your location showing map with azimuth and elevation plus other details from your city location.

Track the satellite on the map from your city or location and see movement details for azimuth, elevation, latitude, longitude, range, height, and movement on the map or in text.







IsCatalogInMostPopularTable: catalog: 46386, numindb: 3
Update: records affected: 1



GetName: 46386 FALCON 9 DEB

Hit Count: updated at: Thu, 24 Sep 2020 17:21:25 GMT